Location: Saint-Hippolyte
(43.6394°N, 4.7559°E)
Time: 16:09:37
(UTC+00:00)

Meteor 2-21 Rocket - Pass Details

Date: 24 October 2020
Orbit: 935 x 968 km, 82.5° (Epoch: 24 November)

Event Time Altitude Azimuth Distance (km) Brightness Sun altitude
Rises 17:28:04 0° 354° (N) 3,660 7.5 -8.8°
Reaches altitude 10° 17:30:38 10° 357° (N) 2,706 6.8 -9.3°
Maximum altitude 17:36:47 64° 79° (E) 1,053 4.4 -10.4°
Drops below altitude 10° 17:42:50 10° 161° (SSE) 2,666 6.7 -11.5°
Sets 17:45:20 0° 164° (SSE) 3,602 7.4 -11.9°
